Tracking 19570 objects as of 21-Feb-2019
HD Live streaming from Space Station
objects crossing your sky now

MOLNIYA 1-52

Track MOLNIYA 1-52 now!
MOLNIYA 1-52 is classified as:


NORAD ID: 13012
Int'l Code: 1981-123A
Perigee: 1,468.7 km
Apogee: 38,892.8 km
Inclination: 64.0 °
Period: 717.6 minutes
Semi major axis: 26551 km
RCS: 16.6943 m2 (large)
Launch date: December 23, 1981
Source: Commonwealth of Independent States (former USSR) (CIS)
Launch site: TYURATAM MISSILE AND SPACE COMPLEX (TTMTR)
aabbcc
Your satellite tracking list
Your tracking list is empty




NASA's NSSDC Master Catalog

Two Line Element Set (TLE):
1 13012U 81123A   19051.24212967  .00001210  00000-0  00000+0 0  9994
2 13012  64.0347  90.8691 7047399 249.5152  26.3571  2.00661152272304
Source of the keplerian elements: AFSPC